International Skating Union - Official Site

ISU World Cup Speed Skating Salt lake City
December 8-11, 2017

Draw | Lap Times | Index | World Cup

Referee: Rick  HUNT  (CAN)
Starter: Garth  LINDER  (USA)
StartTime: EndTime: Air Temp: Ice Temp: Humidity:
14:52 15:55 15.8℃ -8.7℃ 20.5%
Result 5000m Men Division A
Rankings as of Dec 10 2017 4:07PM
Rank: No.: Name: Nation: Time: Behind: Points:
1 11 Ted-Jan  Bloemen CAN CAN 6:01.86200m - 18.47 - (18.4)
600m - 46.99 - (28.5)
1000m - 1:15.48 - (28.4)
1400m - 1:44.36 - (28.8)
1800m - 2:13.10 - (28.7)
2200m - 2:41.74 - (28.6)
2600m - 3:10.31 - (28.5)
3000m - 3:38.83 - (28.5)
3400m - 4:07.32 - (28.4)
3800m - 4:35.90 - (28.5)
4200m - 5:04.55 - (28.6)
4600m - 5:33.12 - (28.5)
5000m - 6:01.86 - (28.7)
WR 100
2 52 Patrick  Beckert GER GER 6:07.02200m - 19.08 - (19.0)
600m - 47.32 - (28.2)
1000m - 1:15.91 - (28.5)
1400m - 1:44.79 - (28.8)
1800m - 2:13.95 - (29.1)
2200m - 2:43.22 - (29.2)
2600m - 3:12.48 - (29.2)
3000m - 3:41.94 - (29.4)
3400m - 4:11.22 - (29.2)
3800m - 4:40.50 - (29.2)
4200m - 5:09.37 - (28.8)
4600m - 5:38.26 - (28.8)
5000m - 6:07.02 - (28.7)
5.16 80
3 54 Moritz  Geisreiter GER GER 6:07.31200m - 18.82 - (18.8)
600m - 46.99 - (28.1)
1000m - 1:15.75 - (28.7)
1400m - 1:44.87 - (29.1)
1800m - 2:14.19 - (29.3)
2200m - 2:43.34 - (29.1)
2600m - 3:12.44 - (29.1)
3000m - 3:41.77 - (29.3)
3400m - 4:11.27 - (29.5)
3800m - 4:40.67 - (29.4)
4200m - 5:09.77 - (29.1)
4600m - 5:38.69 - (28.9)
5000m - 6:07.31 - (28.6)
5.45 70
4 66 Nicola  Tumolero ITA ITA 6:07.50200m - 18.52 - (18.5)
600m - 47.61 - (29.0)
1000m - 1:17.02 - (29.4)
1400m - 1:46.21 - (29.1)
1800m - 2:15.27 - (29.0)
2200m - 2:44.42 - (29.1)
2600m - 3:13.64 - (29.2)
3000m - 3:42.61 - (28.9)
3400m - 4:11.37 - (28.7)
3800m - 4:40.15 - (28.7)
4200m - 5:09.13 - (28.9)
4600m - 5:38.39 - (29.2)
5000m - 6:07.50 - (29.1)
5.64 60
5 119 Sverre Lunde  Pedersen NOR NOR 6:07.61200m - 18.76 - (18.7)
600m - 47.51 - (28.7)
1000m - 1:16.33 - (28.8)
1400m - 1:45.17 - (28.8)
1800m - 2:14.39 - (29.2)
2200m - 2:43.78 - (29.3)
2600m - 3:13.00 - (29.2)
3000m - 3:41.98 - (28.9)
3400m - 4:11.02 - (29.0)
3800m - 4:39.96 - (28.9)
4200m - 5:08.77 - (28.8)
4600m - 5:37.84 - (29.0)
5000m - 6:07.61 - (29.7)
5.75 50
6 63 Andrea  Giovannini ITA ITA 6:08.80200m - 18.81 - (18.8)
600m - 47.34 - (28.5)
1000m - 1:16.50 - (29.1)
1400m - 1:45.93 - (29.4)
1800m - 2:15.12 - (29.1)
2200m - 2:44.31 - (29.1)
2600m - 3:13.44 - (29.1)
3000m - 3:42.64 - (29.2)
3400m - 4:11.84 - (29.2)
3800m - 4:40.94 - (29.1)
4200m - 5:10.21 - (29.2)
4600m - 5:39.32 - (29.1)
5000m - 6:08.80 - (29.4)
6.94 45
7 123 Peter  Michael NZL NZL 6:09.68200m - 19.32 - (19.3)
600m - 48.03 - (28.7)
1000m - 1:17.34 - (29.3)
1400m - 1:46.99 - (29.6)
1800m - 2:16.53 - (29.5)
2200m - 2:45.84 - (29.3)
2600m - 3:15.18 - (29.3)
3000m - 3:44.61 - (29.4)
3400m - 4:13.85 - (29.2)
3800m - 4:43.11 - (29.2)
4200m - 5:12.22 - (29.1)
4600m - 5:41.03 - (28.8)
5000m - 6:09.68 - (28.6)
7.82 40
8 100 Bob  de Vries NED NED 6:11.93200m - 19.47 - (19.4)
600m - 48.47 - (29.0)
1000m - 1:17.32 - (28.8)
1400m - 1:46.52 - (29.2)
1800m - 2:15.63 - (29.1)
2200m - 2:44.87 - (29.2)
2600m - 3:14.11 - (29.2)
3000m - 3:43.57 - (29.4)
3400m - 4:13.05 - (29.4)
3800m - 4:42.62 - (29.5)
4200m - 5:12.05 - (29.4)
4600m - 5:41.84 - (29.7)
5000m - 6:11.93 - (30.0)
10.07 35
9 62 Davide  Ghiotto ITA ITA 6:14.68200m - 19.02 - (19.0)
600m - 48.12 - (29.1)
1000m - 1:17.62 - (29.5)
1400m - 1:47.10 - (29.4)
1800m - 2:16.81 - (29.7)
2200m - 2:46.17 - (29.3)
2600m - 3:15.45 - (29.2)
3000m - 3:44.95 - (29.5)
3400m - 4:14.68 - (29.7)
3800m - 4:44.47 - (29.7)
4200m - 5:14.51 - (30.0)
4600m - 5:44.79 - (30.2)
5000m - 6:14.68 - (29.8)
12.82 30
10 112 Håvard  Bøkko NOR NOR 6:14.89200m - 18.85 - (18.8)
600m - 48.46 - (29.6)
1000m - 1:18.38 - (29.9)
1400m - 1:47.90 - (29.5)
1800m - 2:17.69 - (29.7)
2200m - 2:47.34 - (29.6)
2600m - 3:16.73 - (29.3)
3000m - 3:46.26 - (29.5)
3400m - 4:15.88 - (29.6)
3800m - 4:45.58 - (29.7)
4200m - 5:15.39 - (29.8)
4600m - 5:45.19 - (29.8)
5000m - 6:14.89 - (29.7)
13.03 25
11 95 Seung-Hoon  Lee KOR KOR 6:15.02200m - 19.50 - (19.5)
600m - 48.67 - (29.1)
1000m - 1:17.94 - (29.2)
1400m - 1:47.18 - (29.2)
1800m - 2:16.66 - (29.4)
2200m - 2:46.23 - (29.5)
2600m - 3:15.90 - (29.6)
3000m - 3:45.55 - (29.6)
3400m - 4:15.29 - (29.7)
3800m - 4:45.05 - (29.7)
4200m - 5:14.70 - (29.6)
4600m - 5:44.74 - (30.0)
5000m - 6:15.02 - (30.2)
13.16 21
12 141 Alexander  Rumyantsev RUS RUS 6:16.90200m - 18.90 - (18.9)
600m - 47.73 - (28.8)
1000m - 1:16.68 - (28.9)
1400m - 1:45.84 - (29.1)
1800m - 2:15.22 - (29.3)
2200m - 2:44.60 - (29.3)
2600m - 3:13.94 - (29.3)
3000m - 3:43.45 - (29.5)
3400m - 4:13.26 - (29.8)
3800m - 4:43.50 - (30.2)
4200m - 5:14.08 - (30.5)
4600m - 5:45.26 - (31.1)
5000m - 6:16.90 - (31.6)
15.04 18
13 143 Danil  Sinitsyn RUS RUS 6:17.98200m - 19.58 - (19.5)
600m - 48.59 - (29.0)
1000m - 1:17.99 - (29.4)
1400m - 1:47.34 - (29.3)
1800m - 2:17.01 - (29.6)
2200m - 2:46.70 - (29.6)
2600m - 3:16.12 - (29.4)
3000m - 3:45.89 - (29.7)
3400m - 4:16.03 - (30.1)
3800m - 4:46.52 - (30.4)
4200m - 5:17.10 - (30.5)
4600m - 5:48.06 - (30.9)
5000m - 6:17.98 - (29.9)
16.12 16
14 142 Danila  Semerikov RUS RUS 6:19.72200m - 19.56 - (19.5)
600m - 49.47 - (29.9)
1000m - 1:19.47 - (30.0)
1400m - 1:49.55 - (30.0)
1800m - 2:19.71 - (30.1)
2200m - 2:49.97 - (30.2)
2600m - 3:20.24 - (30.2)
3000m - 3:50.62 - (30.3)
3400m - 4:21.23 - (30.6)
3800m - 4:51.55 - (30.3)
4200m - 5:21.50 - (29.9)
4600m - 5:51.03 - (29.5)
5000m - 6:19.72 - (28.6)
17.86 14
15 50 Alexis  Contin FRA FRA 6:20.81200m - 19.28 - (19.2)
600m - 48.35 - (29.0)
1000m - 1:17.93 - (29.5)
1400m - 1:47.93 - (30.0)
1800m - 2:17.80 - (29.8)
2200m - 2:47.07 - (29.2)
2600m - 3:16.65 - (29.5)
3000m - 3:46.56 - (29.9)
3400m - 4:16.61 - (30.0)
3800m - 4:47.19 - (30.5)
4200m - 5:17.91 - (30.7)
4600m - 5:49.16 - (31.2)
5000m - 6:20.81 - (31.6)
18.95 12
16 101 Erik Jan  Kooiman NED NED 6:23.70200m - 20.00 - (20.0)
600m - 49.38 - (29.3)
1000m - 1:19.05 - (29.6)
1400m - 1:48.55 - (29.5)
1800m - 2:17.95 - (29.4)
2200m - 2:47.28 - (29.3)
2600m - 3:16.87 - (29.5)
3000m - 3:46.71 - (29.8)
3400m - 4:17.32 - (30.6)
3800m - 4:48.18 - (30.8)
4200m - 5:19.53 - (31.3)
4600m - 5:51.45 - (31.9)
5000m - 6:23.70 - (32.2)
21.84 10